QPF
0.00 0.00 0.00 0.00 0.00 0.00 0.00 0.00 0.00 0.00 0.00 0.00 0.00 0.00 0.00 0.00 0.00 0.00 0.00 0.00 0.00 0.00 0.00 0.00 0.00 0.00 0.00 0.00 0.02 0.01 0.05 0.11 0.05 0.03 0.02 0.00 0.00 0.00 0.00 0.00 0.00 0.00 0.00 0.00
0.00 0.00 0.00 0.00 0.00 0.00 0.00 0.00 0.00 0.00 0.00 0.00 0.00 0.00 0.00 0.00 0.00 0.00 0.00 0.00 0.00 0.00 0.00 0.00 0.00 0.00 0.00 0.00 0.03 0.05 0.04 0.05 0.01 0.00 0.00 0.00 0.00 0.00 0.00 0.00 0.00 0.00 0.00 0.00
0.00 0.00 0.00 0.00 0.00 0.00 0.00 0.00 0.00 0.00 0.00 0.00 0.00 0.00 0.00 0.00 0.00 0.00 0.00 0.00 0.00 0.00 0.00 0.00 0.00 0.00 0.00 0.00 0.01 0.02 0.01 0.01 0.00 0.00 0.00 0.00 0.00 0.00 0.00 0.00 0.00 0.00 0.00 0.00
0.00 0.00 0.00 0.00 0.00 0.00 0.00 0.00 0.00 0.00 0.00 0.00 0.00 0.00 0.01 0.01 0.00 0.00 0.00 0.00 0.00 0.00 0.00 0.00 0.00 0.00 0.03 0.02 0.02 0.00 0.00 0.00 0.00 0.00 0.00 0.00 0.00 0.00 0.00 0.00 0.00 0.00 0.00 0.00
0.02 0.00 0.00 0.00 0.00 0.00 0.00 0.00 0.00 0.00 0.00 0.05 0.02 0.00 0.01 0.01 0.00 0.00 0.00 0.00 0.00 0.00 0.00 0.00 0.00 0.00 0.00 0.00 0.00 0.00 0.00 0.00 0.00 0.00 0.00 0.00 0.00 0.00 0.00 0.00 0.00 0.00 0.00 0.00
0.00 0.00 0.00 0.00 0.00 0.00 0.00 0.00 0.00 0.00 0.00 0.01 0.01 0.01 0.01 0.01 0.01 0.03 0.00 0.00 0.00 0.00 0.00 0.00 0.00 0.00 0.00 0.00 0.00 0.00 0.00 0.00 0.00 0.00 0.00 0.00 0.00 0.00 0.00 0.00 0.00 0.00 0.00 0.00
0.00 0.00 0.00 0.00 0.00 0.00 0.00 0.00 0.00 0.02 0.00 0.00 0.00 0.00 0.01 0.00 0.05 0.15 0.05 0.00 0.00 0.00 0.00 0.00 0.00 0.00 0.00 0.00 0.00 0.00 0.00 0.00 0.00 0.00 0.00 0.00 0.00 0.00 0.00 0.00 0.00 0.00 0.00 0.00
0.00 0.00 0.00 0.00 0.00 0.01 0.00 0.00 0.00 0.05 0.02 0.00 0.00 0.00 0.00 0.00 0.00 0.00 0.00 0.00 0.00 0.00 0.00 0.00 0.00 0.00 0.00 0.00 0.00 0.00 0.00 0.00 0.00 0.00 0.00 0.00 0.00 0.00 0.00 0.00 0.00 0.00 0.00 0.00
0.04 0.01 0.00 0.00 0.00 0.00 0.00 0.00 0.00 0.00 0.00 0.00 0.00 0.00 0.00 0.00 0.00 0.00 0.00 0.00 0.00 0.00 0.00 0.00 0.00 0.00 0.00 0.00 0.00 0.00 0.00 0.00 0.00 0.00 0.00 0.00 0.00 0.00 0.00 0.00 0.00 0.00 0.00 0.00
0.06 0.07 0.00 0.00 0.00 0.00 0.00 0.00 0.00 0.00 0.00 0.00 0.00 0.00 0.00 0.00 0.00 0.00 0.00 0.00 0.00 0.00 0.00 0.00 0.00 0.00 0.00 0.00 0.00 0.00 0.00 0.00 0.00 0.00 0.00 0.00 0.00 0.00 0.00 0.00 0.00 0.00 0.00 0.00
0.00 0.00 0.00 0.00 0.00 0.00 0.00 0.00 0.00 0.00 0.00 0.00 0.00 0.00 0.00 0.00 0.00 0.00 0.00 0.00 0.00 0.00 0.00 0.00 0.00 0.00 0.00 0.00 0.00 0.00 0.00 0.00 0.00 0.00 0.00 0.00 0.00 0.00 0.00 0.00 0.00 0.00 0.00 0.00
0.00 0.00 0.00 0.00 0.00 0.00 0.00 0.00 0.00 0.00 0.00 0.00 0.00 0.00 0.00 0.00 0.00 0.00 0.00 0.00 0.00 0.00 0.00 0.00 0.00 0.00 0.00 0.00 0.00 0.00 0.00 0.00 0.00 0.00 0.00 0.00 0.00 0.00 0.00 0.00 0.00 0.00 0.00 0.00
0.00 0.00 0.00 0.00 0.00 0.00 0.00 0.00 0.00 0.00 0.00 0.00 0.00 0.00 0.00 0.00 0.00 0.00 0.00 0.00 0.00 0.00 0.00 0.00 0.00 0.00 0.00 0.00 0.00 0.00 0.00 0.00 0.00 0.00 0.00 0.00 0.00 0.00 0.00 0.00 0.00 0.00 0.00 0.00
0.00 0.00 0.00 0.00 0.00 0.00 0.00 0.00 0.00 0.00 0.00 0.00 0.00 0.00 0.00 0.00 0.00 0.00 0.00 0.00 0.00 0.00 0.00 0.00 0.00 0.00 0.00 0.00 0.00 0.00 0.00 0.00 0.00 0.00 0.00 0.00 0.00 0.00 0.00 0.00 0.00 0.00 0.00 0.00
0.00 0.00 0.00 0.00 0.00 0.00 0.00 0.00 0.00 0.00 0.00 0.00 0.00 0.00 0.00 0.00 0.00 0.00 0.00 0.00 0.00 0.00 0.00 0.00 0.00 0.00 0.00 0.00 0.00 0.00 0.00 0.00 0.00 0.00 0.00 0.00 0.00 0.00 0.00 0.00 0.00 0.00 0.00 0.00
0.00 0.00 0.00 0.00 0.00 0.00 0.00 0.00 0.00 0.00 0.00 0.00 0.00 0.00 0.00 0.00 0.00 0.00 0.00 0.00 0.00 0.00 0.00 0.00 0.00 0.00 0.00 0.00 0.00 0.00 0.00 0.00 0.00 0.00 0.00 0.00 0.00 0.00 0.00 0.00 0.00 0.00 0.00 0.00
0.00 0.00 0.00 0.00 0.00 0.00 0.00 0.00 0.00 0.00 0.00 0.00 0.00 0.00 0.00 0.00 0.00 0.00 0.00 0.00 0.00 0.00 0.00 0.00 0.00 0.00 0.00 0.00 0.00 0.00 0.00 0.00 0.00 0.00 0.00 0.00 0.00 0.00 0.00 0.00 0.00 0.00 0.00 0.00
0.00 0.00 0.00 0.00 0.00 0.00 0.00 0.00 0.00 0.00 0.00 0.00 0.00 0.00 0.00 0.00 0.00 0.00 0.00 0.00 0.00 0.00 0.00 0.00 0.00 0.00 0.00 0.00 0.00 0.00 0.00 0.00 0.00 0.00 0.00 0.00 0.00 0.00 0.00 0.00 0.00 0.00 0.00 0.00
0.00 0.00 0.00 0.00 0.00 0.00 0.00 0.00 0.00 0.00 0.00 0.00 0.00 0.00 0.00 0.00 0.00 0.00 0.00 0.00 0.00 0.00 0.00 0.00 0.00 0.00 0.00 0.00 0.00 0.00 0.00 0.00 0.00 0.00 0.00 0.00 0.00 0.00 0.00 0.00 0.00 0.00 0.00 0.00
0.00 0.00 0.00 0.00 0.00 0.00 0.00 0.00 0.00 0.00 0.00 0.00 0.00 0.00 0.00 0.00 0.00 0.00 0.00 0.00 0.00 0.00 0.00 0.00 0.00 0.00 0.00 0.00 0.00 0.00 0.00 0.00 0.00 0.00 0.00 0.00 0.00 0.00 0.00 0.00 0.00 0.00 0.00 0.00
0.00 0.00 0.00 0.00 0.00 0.00 0.00 0.00 0.00 0.00 0.00 0.00 0.00 0.00 0.00 0.00 0.00 0.00 0.00 0.00 0.00 0.00 0.00 0.00 0.00 0.00 0.00 0.00 0.00 0.00 0.00 0.00 0.01 0.01 0.00 0.00 0.00 0.00 0.00 0.00 0.00 0.00 0.00 0.00
0.00 0.00 0.00 0.00 0.00 0.00 0.00 0.00 0.00 0.00 0.00 0.00 0.00 0.00 0.00 0.00 0.00 0.00 0.00 0.00 0.00 0.00 0.00 0.00 0.00 0.00 0.00 0.00 0.00 0.01 0.03 0.02 0.01 0.00 0.00 0.00 0.00 0.00 0.00 0.00 0.00 0.00 0.00 0.00
0.00 0.00 0.00 0.00 0.00 0.00 0.00 0.00 0.00 0.00 0.00 0.00 0.00 0.00 0.00 0.00 0.00 0.00 0.00 0.00 0.00 0.00 0.00 0.00 0.00 0.00 0.00 0.00 0.01 0.02 0.01 0.00 0.00 0.00 0.00 0.00 0.00 0.00 0.00 0.00 0.00 0.00 0.00 0.00
0.00 0.00 0.00 0.00 0.00 0.00 0.00 0.00 0.00 0.00 0.00 0.00 0.00 0.00 0.00 0.00 0.00 0.00 0.00 0.00 0.00 0.00 0.00 0.00 0.00 0.00 0.00 0.00 0.01 0.00 0.00 0.00 0.01 0.00 0.00 0.00 0.00 0.00 0.00 0.00 0.00 0.00 0.00 0.00
0.00 0.00 0.00 0.00 0.00 0.00 0.00 0.00 0.00 0.00 0.00 0.00 0.00 0.00 0.00 0.00 0.00 0.00 0.00 0.00 0.00 0.00 0.00 0.00 0.00 0.00 0.01 0.01 0.01 0.00 0.00 0.00 0.00 0.00 0.00 0.00 0.00 0.00 0.00 0.00 0.00 0.00 0.00 0.00
0.00 0.00 0.00 0.00 0.00 0.00 0.00 0.00 0.00 0.00 0.00 0.00 0.00 0.00 0.00 0.00 0.00 0.00 0.00 0.00 0.00 0.00 0.00 0.00 0.00 0.00 0.00 0.00 0.00 0.00 0.00 0.00 0.00 0.00 0.00 0.00 0.00 0.00 0.00 0.00 0.00 0.00 0.00 0.00
MSLP
1007.21 1007.39 1006.93 1006.93 1007.14 1006.24 1006.09 1005.48 1004.32 1004.03 1004.41 1004.68 1004.89 1005.36 1005.98 1006.29 1006.49 1006.87 1008.37 1008.26 1009.17 1010.07 1010.75 1011.58 1012.05 1012.44 1012.95 1013.93 1015.28 1016.23 1017.75 1018.48 1019.13 1019.74 1019.79 1019.45 1020.14 1020.26 1020.32 1020.81 1021.31 1021.53 1021.84 1022.05
1007.35 1007.56 1007.48 1007.26 1006.65 1005.99 1005.33 1005.11 1004.35 1004.59 1004.88 1005.00 1004.85 1004.99 1005.47 1005.95 1006.21 1006.32 1006.94 1007.66 1008.46 1009.36 1010.27 1011.50 1012.39 1012.93 1013.29 1014.20 1015.38 1016.53 1017.59 1018.52 1018.79 1018.93 1018.88 1019.15 1019.58 1019.87 1020.41 1021.14 1021.52 1021.78 1022.04 1022.22
1008.16 1008.76 1008.05 1006.73 1006.02 1005.71 1005.32 1004.91 1005.28 1005.08 1005.32 1005.37 1005.93 1005.58 1005.63 1006.03 1006.17 1006.27 1006.65 1006.97 1007.63 1008.48 1009.76 1011.09 1012.28 1013.16 1013.70 1014.56 1015.49 1016.30 1017.15 1017.84 1017.90 1017.95 1018.24 1018.87 1019.38 1019.96 1020.50 1021.17 1021.68 1021.95 1022.23 1022.42
1009.07 1007.94 1007.69 1006.40 1006.15 1005.72 1005.84 1006.13 1005.85 1005.89 1005.81 1006.00 1006.84 1007.11 1007.90 1007.50 1006.51 1006.10 1006.31 1006.62 1007.11 1007.91 1009.20 1010.63 1012.02 1013.04 1014.16 1014.83 1015.73 1016.12 1016.78 1016.99 1017.16 1017.55 1018.12 1018.75 1019.31 1019.99 1020.53 1021.05 1021.59 1021.81 1022.17 1022.42
1008.58 1007.08 1006.77 1006.41 1006.38 1005.98 1006.75 1006.09 1006.37 1005.90 1006.04 1006.81 1007.57 1008.44 1007.71 1008.09 1007.34 1006.84 1007.17 1007.11 1007.00 1007.61 1008.71 1010.21 1011.66 1012.94 1013.97 1014.80 1015.29 1015.68 1016.12 1016.74 1017.31 1017.77 1018.18 1018.75 1019.59 1020.26 1020.73 1021.32 1021.79 1022.19 1022.55 1022.60
1006.96 1006.95 1007.00 1007.32 1006.31 1005.99 1006.27 1006.45 1006.13 1006.12 1006.44 1007.65 1007.40 1008.67 1007.50 1007.86 1007.41 1008.98 1007.73 1007.91 1008.08 1007.99 1008.82 1010.08 1011.43 1012.63 1013.64 1014.56 1015.16 1015.78 1016.42 1017.10 1017.66 1018.15 1018.76 1019.27 1020.01 1020.58 1021.15 1021.75 1022.34 1022.62 1022.88 1023.00
1006.71 1006.28 1005.97 1006.25 1005.68 1005.77 1005.92 1005.98 1006.34 1007.62 1008.03 1006.98 1006.05 1006.14 1005.72 1005.37 1007.88 1008.20 1007.98 1007.36 1008.21 1008.73 1009.40 1010.46 1011.72 1012.91 1014.13 1015.06 1015.71 1016.29 1016.81 1017.52 1018.16 1018.81 1019.45 1020.00 1020.51 1020.90 1021.65 1022.27 1022.51 1022.61 1023.03 1023.32
1006.68 1007.02 1005.77 1005.72 1005.65 1006.44 1006.70 1006.09 1006.78 1009.01 1009.59 1007.25 1006.29 1005.20 1004.13 1004.61 1005.21 1006.23 1006.30 1007.16 1008.34 1009.05 1009.90 1010.94 1012.15 1013.38 1014.55 1015.47 1016.05 1016.37 1016.97 1017.79 1018.54 1019.21 1019.85 1020.37 1020.82 1021.30 1021.75 1021.92 1022.08 1022.41 1022.94 1023.24
1008.43 1008.25 1007.84 1005.94 1005.60 1005.92 1005.70 1005.77 1006.48 1007.93 1008.22 1007.64 1006.66 1005.04 1003.93 1004.35 1004.92 1005.26 1006.05 1007.15 1008.19 1009.15 1010.21 1011.20 1012.30 1013.40 1014.56 1015.44 1015.98 1016.36 1016.99 1017.74 1018.53 1019.35 1020.07 1020.63 1020.98 1021.32 1021.57 1021.94 1022.22 1022.57 1022.88 1023.00
1009.19 1010.70 1007.42 1006.44 1006.17 1005.89 1005.91 1006.03 1006.36 1006.99 1007.73 1007.63 1006.52 1005.15 1003.70 1004.40 1004.61 1005.19 1005.63 1006.78 1007.99 1009.12 1010.17 1011.18 1012.17 1013.28 1014.32 1015.25 1015.95 1016.44 1016.92 1017.61 1018.46 1019.25 1020.08 1020.58 1020.93 1021.13 1021.53 1021.79 1022.10 1022.44 1022.74 1022.93
1006.43 1007.95 1006.44 1006.48 1005.88 1005.28 1005.73 1006.02 1006.46 1007.04 1007.46 1007.84 1007.25 1005.85 1005.16 1004.86 1004.78 1005.11 1005.71 1006.34 1007.48 1008.68 1009.72 1010.70 1011.69 1012.80 1013.91 1014.98 1015.77 1016.43 1016.90 1017.60 1018.55 1019.25 1019.94 1020.38 1020.79 1020.96 1021.31 1021.60 1021.84 1022.16 1022.52 1022.74
1006.11 1006.27 1006.20 1005.79 1005.24 1005.37 1005.46 1005.65 1006.07 1007.03 1007.99 1008.08 1008.07 1006.50 1005.53 1005.29 1005.12 1005.47 1005.80 1005.96 1006.81 1007.87 1008.97 1009.99 1011.10 1012.28 1013.48 1014.61 1015.51 1016.31 1016.94 1017.66 1018.46 1019.32 1019.92 1020.26 1020.47 1020.66 1020.93 1021.20 1021.48 1021.75 1022.28 1022.41
1006.34 1006.61 1006.60 1006.06 1005.67 1005.59 1005.70 1005.79 1006.04 1006.52 1007.61 1008.00 1008.01 1006.74 1005.62 1005.50 1005.45 1005.48 1005.73 1006.09 1006.48 1007.33 1008.33 1009.28 1010.37 1011.71 1013.05 1014.11 1015.14 1016.17 1017.01 1017.75 1018.54 1019.36 1019.74 1019.91 1020.15 1020.49 1020.55 1020.68 1021.11 1021.61 1021.99 1022.25
1007.10 1006.99 1006.93 1006.70 1006.08 1005.78 1005.64 1005.79 1005.80 1006.32 1007.18 1007.57 1007.22 1006.22 1005.20 1004.87 1005.05 1005.11 1005.59 1006.24 1006.51 1006.99 1007.76 1008.60 1009.62 1010.82 1012.25 1013.53 1014.68 1015.81 1016.75 1017.61 1018.42 1019.02 1019.50 1019.74 1019.67 1019.89 1020.41 1020.64 1020.92 1021.40 1021.86 1021.95
1007.69 1007.75 1007.74 1007.12 1006.46 1006.38 1006.25 1005.78 1005.63 1005.84 1006.21 1006.66 1006.47 1005.68 1004.82 1004.39 1004.69 1004.76 1005.10 1005.84 1006.56 1006.93 1007.20 1007.94 1008.91 1010.22 1011.43 1012.88 1014.11 1015.27 1016.32 1017.33 1018.17 1019.00 1019.37 1019.31 1019.15 1019.44 1019.91 1020.44 1020.79 1021.10 1021.54 1021.73
1007.90 1008.50 1008.74 1008.56 1007.87 1007.28 1006.85 1006.38 1005.96 1005.74 1005.60 1005.50 1005.35 1004.90 1004.59 1004.56 1005.01 1005.47 1005.84 1006.24 1006.60 1007.17 1007.39 1007.81 1008.63 1009.66 1010.98 1012.24 1013.45 1014.66 1015.79 1016.97 1017.97 1018.77 1018.92 1018.99 1019.41 1019.91 1020.20 1020.52 1020.65 1020.96 1021.23 1021.31
1008.09 1009.09 1009.81 1009.77 1009.33 1008.68 1007.83 1006.51 1005.93 1005.71 1005.51 1005.38 1005.16 1005.05 1004.98 1005.09 1005.16 1005.84 1006.40 1006.71 1007.02 1007.58 1007.94 1008.32 1008.87 1009.69 1010.69 1011.70 1012.82 1014.12 1015.47 1016.69 1017.68 1018.22 1018.67 1019.09 1019.59 1019.84 1020.44 1020.81 1020.74 1020.74 1020.91 1021.08
1008.82 1009.78 1010.44 1011.01 1010.97 1009.40 1007.08 1006.17 1005.87 1005.74 1005.58 1005.35 1005.19 1005.22 1005.46 1006.08 1006.46 1006.75 1006.94 1007.25 1007.63 1007.77 1008.46 1008.88 1009.31 1009.84 1010.60 1011.54 1012.71 1014.08 1015.30 1016.52 1017.46 1018.31 1019.05 1019.66 1019.94 1020.22 1020.49 1020.93 1021.02 1020.98 1020.72 1020.92
1009.03 1010.17 1011.21 1011.71 1010.92 1009.08 1007.53 1006.57 1006.64 1006.38 1006.42 1006.38 1006.45 1006.66 1006.79 1007.09 1007.44 1007.46 1007.20 1007.93 1008.42 1008.71 1008.95 1009.18 1009.53 1010.02 1010.85 1011.80 1012.81 1014.25 1015.70 1016.77 1017.90 1018.95 1019.68 1020.72 1020.90 1021.17 1021.25 1021.01 1020.81 1020.72 1020.70 1020.84
1009.98 1010.55 1011.36 1011.92 1011.24 1009.76 1007.92 1007.67 1007.45 1007.16 1007.29 1007.59 1007.89 1008.06 1008.17 1008.08 1008.22 1008.62 1008.95 1009.01 1009.07 1009.14 1009.32 1009.58 1009.91 1010.60 1011.44 1012.63 1013.68 1015.07 1016.52 1017.88 1018.98 1020.22 1020.79 1021.02 1021.48 1021.59 1021.33 1021.29 1021.02 1020.90 1020.68 1020.57
1010.56 1010.96 1011.43 1011.49 1011.15 1009.66 1007.93 1007.84 1007.96 1008.05 1008.89 1008.64 1008.79 1008.81 1008.98 1009.07 1009.20 1009.41 1009.51 1009.70 1009.83 1009.68 1010.08 1010.27 1011.16 1012.63 1014.09 1014.87 1015.66 1017.24 1018.33 1019.21 1020.10 1021.21 1021.59 1021.63 1021.48 1021.27 1021.14 1021.21 1021.12 1020.95 1020.87 1020.50
1009.45 1010.15 1010.66 1010.80 1010.78 1009.60 1008.19 1008.28 1008.48 1008.75 1008.85 1009.05 1009.20 1009.32 1009.57 1009.68 1009.73 1009.74 1009.85 1009.89 1010.57 1010.94 1011.37 1012.48 1013.92 1015.41 1016.51 1017.20 1017.80 1018.74 1019.74 1020.81 1021.46 1021.49 1021.76 1021.65 1021.47 1021.16 1020.88 1020.79 1020.90 1021.06 1020.78 1020.57
1008.10 1008.36 1008.89 1009.33 1008.99 1008.56 1008.17 1008.40 1008.57 1008.93 1009.34 1009.58 1009.74 1009.82 1009.92 1010.09 1010.17 1010.31 1010.47 1010.85 1011.73 1012.52 1014.14 1015.00 1016.54 1017.80 1018.72 1019.15 1019.54 1020.12 1020.61 1020.79 1021.47 1021.73 1021.82 1021.60 1021.22 1020.87 1020.90 1020.98 1021.03 1020.88 1020.83 1020.66
1007.58 1008.01 1008.49 1008.75 1008.00 1008.00 1008.01 1008.34 1008.69 1009.37 1009.94 1010.22 1010.43 1010.50 1010.67 1010.91 1011.23 1011.35 1011.53 1012.37 1013.28 1014.78 1015.97 1017.37 1018.45 1019.22 1019.86 1020.20 1020.51 1020.94 1021.15 1021.35 1021.53 1021.66 1021.46 1020.97 1021.05 1020.97 1020.88 1020.71 1020.54 1020.34 1020.44 1020.68
1007.70 1007.94 1008.27 1008.47 1008.43 1008.38 1008.62 1009.39 1010.04 1010.68 1011.03 1011.38 1011.71 1011.96 1012.37 1012.47 1012.49 1012.76 1013.90 1015.02 1016.02 1017.20 1018.16 1018.85 1019.47 1020.14 1020.61 1020.88 1021.00 1021.00 1021.16 1021.47 1021.35 1021.21 1021.25 1021.22 1021.23 1021.00 1020.72 1020.40 1020.14 1020.10 1020.06 1020.25
1007.73 1007.87 1008.43 1008.89 1009.29 1009.62 1010.17 1011.08 1011.50 1012.06 1012.70 1013.15 1013.37 1013.85 1014.32 1014.33 1014.84 1015.42 1016.37 1017.47 1018.24 1018.85 1019.43 1019.74 1019.98 1020.15 1020.49 1020.71 1020.83 1020.94 1021.01 1021.23 1021.46 1021.46 1021.31 1021.10 1021.08 1020.83 1020.53 1020.22 1019.93 1019.79 1019.56 1019.51
Thickness
5668 5654 5653 5656 5663 5679 5676 5679 5690 5707 5709 5701 5699 5695 5694 5701 5701 5696 5684 5689 5684 5679 5683 5681 5679 5678 5674 5667 5659 5649 5636 5629 5623 5616 5613 5615 5606 5603 5600 5594 5587 5581 5574 5569
5659 5644 5662 5671 5677 5681 5688 5685 5693 5700 5704 5700 5703 5700 5704 5703 5701 5703 5697 5691 5687 5684 5683 5678 5674 5672 5670 5661 5654 5642 5633 5624 5621 5618 5617 5612 5606 5602 5597 5588 5581 5575 5569 5563
5643 5641 5660 5673 5680 5679 5685 5685 5681 5687 5696 5702 5685 5690 5696 5703 5705 5705 5703 5703 5699 5691 5681 5676 5669 5665 5662 5654 5647 5641 5633 5626 5625 5624 5620 5611 5605 5599 5593 5584 5575 5566 5559 5552
5636 5661 5656 5677 5672 5685 5664 5682 5684 5679 5682 5667 5686 5651 5647 5662 5691 5700 5701 5701 5699 5696 5687 5678 5668 5662 5653 5649 5643 5641 5634 5631 5629 5624 5616 5607 5601 5591 5585 5577 5568 5561 5552 5545
5632 5662 5669 5669 5669 5680 5657 5684 5679 5691 5688 5670 5663 5644 5665 5665 5671 5687 5691 5696 5700 5698 5689 5678 5669 5660 5654 5648 5644 5640 5637 5631 5624 5618 5613 5604 5593 5584 5576 5566 5557 5549 5539 5533
5667 5678 5670 5660 5681 5684 5685 5679 5687 5690 5686 5633 5664 5638 5659 5660 5669 5641 5685 5689 5690 5693 5687 5679 5671 5663 5654 5648 5642 5636 5630 5623 5617 5611 5603 5594 5584 5574 5565 5555 5544 5537 5529 5522
5663 5673 5688 5683 5679 5687 5685 5677 5653 5623 5619 5644 5695 5682 5669 5689 5660 5656 5662 5690 5686 5684 5679 5671 5663 5654 5645 5638 5633 5628 5624 5615 5608 5600 5591 5582 5573 5565 5553 5543 5536 5528 5518 5510
5650 5634 5678 5689 5680 5649 5656 5675 5649 5589 5584 5651 5684 5672 5695 5704 5702 5688 5689 5688 5681 5676 5670 5663 5655 5647 5638 5631 5627 5624 5617 5607 5599 5590 5580 5572 5563 5553 5544 5537 5529 5520 5509 5499
5624 5632 5651 5681 5687 5680 5674 5665 5681 5644 5650 5647 5666 5689 5711 5707 5700 5702 5691 5685 5676 5671 5664 5658 5651 5644 5635 5627 5622 5618 5610 5602 5592 5581 5570 5560 5551 5543 5535 5526 5517 5507 5497 5489
5612 5585 5645 5670 5679 5682 5673 5683 5657 5661 5628 5626 5659 5675 5685 5684 5690 5693 5690 5682 5676 5670 5663 5656 5649 5640 5632 5624 5618 5611 5604 5595 5584 5573 5560 5550 5541 5534 5524 5515 5506 5496 5486 5477
5670 5642 5658 5665 5663 5666 5666 5660 5665 5666 5658 5630 5630 5658 5687 5685 5691 5688 5687 5684 5677 5668 5662 5656 5648 5640 5629 5620 5611 5603 5594 5585 5574 5562 5550 5540 5530 5523 5514 5504 5495 5485 5475 5466
5673 5663 5643 5658 5681 5684 5676 5668 5668 5636 5635 5640 5629 5645 5689 5688 5689 5687 5684 5685 5680 5673 5664 5657 5648 5637 5625 5613 5605 5595 5584 5574 5563 5550 5538 5529 5520 5512 5504 5494 5485 5476 5465 5456
5667 5651 5629 5644 5664 5673 5661 5668 5670 5667 5648 5633 5615 5640 5685 5683 5680 5683 5680 5681 5678 5670 5662 5653 5643 5632 5621 5608 5597 5585 5573 5562 5550 5537 5528 5519 5511 5501 5494 5486 5476 5464 5454 5444
5656 5652 5642 5627 5647 5661 5654 5659 5667 5661 5627 5631 5634 5654 5674 5679 5674 5677 5676 5675 5673 5667 5661 5653 5638 5626 5615 5602 5589 5576 5563 5551 5539 5527 5517 5509 5502 5494 5484 5474 5465 5453 5441 5433
5648 5633 5643 5652 5661 5658 5654 5658 5663 5657 5658 5636 5650 5656 5674 5683 5675 5676 5674 5669 5664 5661 5655 5648 5636 5620 5607 5594 5580 5568 5554 5542 5529 5516 5507 5500 5494 5486 5475 5463 5453 5441 5430 5419
5644 5625 5631 5627 5644 5648 5641 5651 5657 5660 5663 5663 5664 5661 5682 5681 5675 5667 5662 5659 5653 5648 5648 5642 5634 5618 5602 5588 5574 5561 5547 5532 5518 5506 5498 5491 5480 5469 5459 5449 5440 5428 5417 5407
5633 5619 5611 5611 5624 5622 5610 5635 5648 5655 5662 5660 5644 5662 5673 5666 5662 5653 5656 5649 5642 5637 5632 5626 5619 5608 5595 5582 5568 5553 5538 5523 5508 5500 5490 5479 5467 5457 5444 5433 5425 5415 5403 5391
5615 5613 5609 5603 5590 5589 5642 5664 5660 5654 5658 5663 5662 5662 5660 5650 5648 5647 5643 5635 5630 5625 5617 5611 5604 5597 5587 5574 5559 5545 5531 5515 5501 5488 5474 5460 5451 5441 5430 5418 5408 5397 5388 5375
5627 5610 5596 5584 5601 5624 5637 5650 5643 5639 5637 5648 5644 5644 5644 5640 5635 5629 5635 5626 5616 5609 5605 5600 5595 5587 5575 5563 5551 5534 5516 5501 5485 5469 5456 5440 5430 5418 5409 5402 5393 5383 5373 5362
5612 5609 5601 5592 5590 5587 5627 5636 5642 5641 5614 5633 5631 5625 5623 5624 5600 5607 5610 5607 5603 5600 5595 5587 5583 5572 5562 5548 5535 5517 5497 5480 5463 5447 5434 5423 5410 5399 5393 5386 5376 5367 5359 5350
5589 5591 5581 5589 5582 5600 5634 5634 5632 5604 5603 5619 5617 5615 5610 5602 5600 5600 5598 5591 5588 5585 5578 5575 5562 5546 5530 5519 5508 5487 5469 5455 5442 5425 5416 5406 5399 5391 5381 5369 5358 5351 5342 5336
5596 5591 5581 5590 5570 5574 5629 5621 5602 5611 5615 5612 5608 5605 5598 5595 5593 5590 5587 5582 5576 5567 5560 5548 5529 5510 5498 5488 5475 5461 5447 5433 5420 5412 5401 5393 5385 5377 5369 5359 5347 5334 5328 5321
5607 5615 5606 5602 5597 5619 5623 5616 5616 5612 5604 5600 5596 5594 5590 5584 5581 5578 5573 5567 5558 5545 5525 5515 5495 5479 5466 5459 5450 5438 5428 5420 5406 5394 5385 5377 5370 5363 5354 5344 5335 5324 5314 5308
5621 5621 5605 5604 5618 5616 5616 5615 5609 5604 5593 5589 5586 5582 5577 5572 5566 5563 5559 5548 5535 5517 5503 5483 5469 5457 5447 5439 5430 5419 5409 5399 5389 5379 5374 5370 5360 5352 5343 5334 5325 5316 5304 5294
5612 5612 5604 5602 5607 5608 5604 5595 5588 5582 5578 5572 5567 5560 5554 5552 5550 5544 5526 5510 5497 5482 5469 5460 5450 5437 5427 5419 5410 5402 5393 5382 5377 5371 5362 5353 5343 5336 5329 5321 5315 5307 5298 5286
5609 5604 5590 5583 5590 5587 5580 5572 5569 5560 5553 5548 5544 5536 5528 5525 5517 5505 5490 5475 5464 5455 5448 5440 5432 5425 5414 5404 5396 5386 5379 5370 5361 5352 5345 5337 5329 5321 5315 5310 5306 5298 5290 5283